sat.trackr.live / text

‹ back to catalog

STARLINK-30581

NORAD 58096 · 2023-160X

PAYLOAD ACTIVE UNKNOWN

§ Identity

Operator
Country
US
Launch date
2023-10-18
Launch site
AFETR
Launch vehicle
Mass (kg)
RCS (m²)

Purposes: comms

External: N2YO · Heavens-Above · Gunter

§ Orbital elements

Epoch: 2026-05-24T22:10:15.900960Z

Period
94.27 min
Inclination
43.0026°
Eccentricity
0.0001268
Mean motion
15.27575287 rev/d
Perigee alt
482.2 km
Apogee alt
483.9 km
Semi-major
6,861.2 km
B*
4.4139e-5
RAAN
7.4446°
Arg perigee
271.1613°
Mean anomaly
88.9093°
Rev number
14,460

§ Raw data

STARLINK-305811 58096U 23160X   26144.92379515  .00000953  00000+0  44139-4 0  99992 58096  43.0026   7.4446 0001268 271.1613  88.9093 15.27575287144609

JSON: /api/v1/satellites/58096 · /tle

For live sub-satellite position, see the globe view (requires WebGL).

§ Visibility from observer

Set your observer location to see the next 7 days of passes ≥ 10°. The values pass through the URL so the page stays shareable.

No JS? Fill the form by hand. The geolocation button needs JavaScript.